Location: Unspecified
(40.9447°N, 78.9903°W)
Time: 01:09:02
(UTC-04:00)

Okean 3 - Pass Details

Date: 26 July 2021
Orbit: 574 x 601 km, 82.5° (Epoch: 19 September)

Event Time Altitude Azimuth Distance (km) Brightness Sun altitude
Rises 03:59:23 0° 328° (NNW) 2,851 7.2 -19.6°
Reaches altitude 10° 04:03:13 10° 293° (WNW) 1,935 5.9 -19.1°
Enters shadow 04:03:25 10° 290° (WNW) 1,913 5.9 -19.1°
